Voltar ao catálogo

BREEZE-KM R/B

AtivoPO
NORAD 39060·ROCKET BODY·🇷🇺 Russia

Lançado Jan 15, 2013 de Plesetsk Cosmodrome

Loading…

Próximas Passagens (próximas 24 horas)

TLE

AtualizadoSource: Space-Track

Época: Sep 14, 2026, 03:31 UTC

1 39060U 13001D   26257.14719728  .00000026  00000-0  11974-3 0  9997
2 39060  82.4959 164.4070 0012689 233.0184 126.9735 12.42578405619621

Acompanhe BREEZE-KM R/B em tempo real com AllMySat

Download on the App Store